Regional Weather Roundup
Issued by NWS

Home | Current Version | Previous Version | Text Only | Print | Product List | Glossary Off
Versions: 1 2 3 4 5 6 7 8 9 10 11 12 13 14 15 16 17 18 19 20 21 22 23 24 25 26 27 28 29 30 31 32 33 34 35 36 37 38 39 40 41 42 43 44 45 46 47 48 49 50

000
ASUS43 KMPX 212310
RWRMN
WEATHER ROUNDUP FOR MINNESOTA
NATIONAL WEATHER SERVICE TWIN CITIES/CHANHASSEN MN
500 PM CST WED FEB 21 2018


NOTE: "FAIR" INDICATES FEW OR NO CLOUDS BELOW 12,000 FEET WITH NO
SIGNIFICANT WEATHER AND/OR OBSTRUCTIONS TO VISIBILITY. N/A MEANS
CURRENT SKY AND/OR WEATHER CONDITIONS ARE NOT AVAILABLE.

MNZ060>063-068>070-220000-
   Twin Cities Metro

CITY           SKY/WX    TMP DP  RH WIND       PRES   REMARKS
TWIN CITIES    FAIR      19   2  47 SW7       30.64R WCI  10
ST PAUL        FAIR      19   3  49 W8        30.65S WCI   9
CRYSTAL        FAIR      18  -2  41 SW10      30.62R WCI   6
BLAINE         PTCLDY    21   3  45 SW7       30.61S WCI  13
LAKEVILLE      FAIR      16   7  67 W3        30.62S
EDEN PRAIRIE   FAIR      18   3  52 S6        30.62S WCI  10
SOUTH ST PAUL  FAIR      19   5  54 S5        30.63S WCI  12
LAKE ELMO      FAIR      18   9  68 SE7       30.63S WCI   8
$$
MNZ001>005-007-008-013>017-022>024-027-028-220000-
   Northwest Minnesota

CITY           SKY/WX    TMP DP  RH WIND       PRES   REMARKS
BEMIDJI        FAIR      19  -1  40 W10       30.48S WCI   7
HALLOCK        FAIR       9   1  72 SW12      30.49S WCI  -6
ROSEAU         FAIR       9   0  66 SW12      30.49R WCI  -6
WARROAD        FAIR       9   0  66 SW13      30.48R WCI  -7
THIEF RVR FALL FAIR       6  -1  73 SW14      30.50S WCI -11
CROOKSTON      FAIR       9   1  72 SW10      30.53F WCI  -6
FOSSTON        FAIR       9  -4  56 S9        30.51S WCI  -5
DETROIT LAKES  FAIR      14   0  52 SW3       30.52S
MOORHEAD       FAIR      10   1  67 S9        30.56S WCI  -2
PARK RAPIDS    FAIR      11  -1  58 SW8       30.50S WCI  -1
MAHNOMEN       FAIR      10  -1  61 S8        30.52S WCI  -3
$$
MNZ006-009>011-018-025>026-220000-
   North Central Minnesota

CITY           SKY/WX    TMP DP  RH WIND       PRES   REMARKS
BAUDETTE       FAIR      12  -1  56 SW9       30.46R WCI   0
FLAG ISLAND    FAIR       9   0  66 SW10      30.44R WCI  -6
INTL FALLS     FAIR      19   2  47 W6        30.46R WCI  11
WASKISH        FAIR       7   0  72 W10       30.50R WCI  -8
BIG FORK       FAIR      19   3  49 SW12      30.47S WCI   7
LONGVILLE      FAIR      19  -2  38 SW6       30.52S WCI  11
GRAND RAPIDS   FAIR      21   2  43 W9        30.52R WCI  11
CRANE LAKE     FAIR      19   3  49 SW5       30.49S WCI  13
ORR            FAIR      21   1  42 SW8       30.44S WCI  12
COOK             N/A     21   1  42 SW7       30.48R WCI  13
WALKER         FAIR      19  -2  39 SW7       30.50R WCI  10
$$
MNZ012-019>021-037-220000-
   Northeast Minnesota

CITY           SKY/WX    TMP DP  RH WIND       PRES   REMARKS
DULUTH         FAIR      22   3  44 SW14      30.51R WCI   9
ELY            FAIR      19   3  49 SW7       30.47R WCI  10
HIBBING        FAIR      21   0  39 SW10      30.48R WCI  10
EVELETH        FLURRIES N/A N/A N/A W8        30.49R
DULUTH HARBOR  FAIR      23   7  50 SW12      30.58R WCI  12
TWO HARBORS      N/A     27   9  46 SW12      30.51R WCI  16
GRAND MARAIS     N/A     27  16  63 W8G20     30.52R WCI  19
G MARAIS ARPRT FAIR      18   3  53 SW6       30.45R WCI   9
$$
MNZ029>031-032-039>041-046>048-054>057-064-220000-
   West Central Minnesota

CITY           SKY/WX    TMP DP  RH WIND       PRES   REMARKS
FERGUS FALLS   FAIR      12   1  62 S7        30.56S WCI   2
WHEATON        FAIR      16   0  48 S5        30.58F WCI   9
MORRIS         FAIR      18   1  49 SW3       30.56F
ALEXANDRIA     FAIR      14  -1  51 SW8       30.55S WCI   3
ELBOW LAKE     FAIR      14   4  65 S7        30.57R WCI   3
WADENA         FAIR      16  -2  45 SW7       30.53R WCI   6
GLENWOOD       FAIR      16   1  53 SW8       30.56S WCI   5
APPLETON       FAIR      18   1  49 SW3       30.57F
BENSON         FAIR      18   0  45 W5        30.59F WCI  11
ORTONVILLE     FAIR      19   1  45 W3        30.56F
MADISON        FAIR      19   5  53 S6        30.57F WCI  11
WILLMAR        FAIR      16   3  57 CALM      30.61S
$$
MNZ033>034-036-042>043-049>051-058-059-220000-
   Central Minnesota

CITY           SKY/WX    TMP DP  RH WIND       PRES   REMARKS
ST CLOUD       FAIR      16   0  49 SW7       30.60R WCI   6
SAUK CENTRE    FAIR      16   1  53 S7        30.57S WCI   6
PAYNESVILLE    FAIR      17   2  52 SW6       30.59S WCI   9
AITKIN         FAIR      19   0  42 S7        30.53R WCI  10
PINE RIVER     FAIR      18   0  45 SW6       30.54S WCI   9
BRAINERD       FAIR      19  -1  41 W9        30.54S WCI   8
STAPLES        FAIR      18  -4  38 SW5       30.54R WCI  11
LONG PRAIRIE   FAIR      16   0  48 S6        30.56S WCI   7
LITTLE FALLS   FAIR      18  -6  35 S7        30.58F WCI   8
LITCHFIELD     FAIR      18   5  57 CALM      30.60F
BUFFALO        FAIR      17   4  54 S5        30.62F WCI  10
MAPLE LAKE     FAIR      19   4  52 SW3       30.61S
HUTCHINSON     FAIR      19   4  53 W6        30.61F WCI  10
$$
MNZ037-044-045-052-053-220000-
   East Central Minnesota

CITY           SKY/WX    TMP DP  RH WIND       PRES   REMARKS
PRINCETON      FAIR      19   3  49 S5        30.60S WCI  13
CAMBRIDGE      FAIR      19   5  53 SW5       30.61S WCI  13
RUSH CITY      FAIR      19   0  44 SW6       30.61R WCI  11
MOOSE LAKE     FAIR      21   3  45 S8        30.55R WCI  12
HINCKLEY       FAIR      19   1  45 S7        30.60R WCI  10
CLOQUET        FAIR      21   1  42 S8        30.52S WCI  12
MCGREGOR       FAIR      21   3  45 S8        30.55R WCI  12
$$
MNZ071>073-080-081-089-090-097-098-220000-
   Southwest Minnesota

CITY           SKY/WX    TMP DP  RH WIND       PRES   REMARKS
MONTEVIDEO     FAIR      23   1  39 NW3       30.59F
GRANITE FALLS  FAIR      19   7  58 CALM      30.60F
CANBY          FAIR      20   3  49 W5        30.57F WCI  13
MARSHALL       FAIR      18   5  57 SW5       30.59  WCI  11
REDWOOD FALLS  FAIR      18   2  49 W7        30.60S WCI   9
OLIVIA         FAIR      21   5  49 CALM      30.59F
PIPESTONE      FAIR      12   3  67 S6        30.53S WCI   3
WORTHINGTON    FAIR      17   6  62 W3        30.56S
JACKSON        FAIR      18   5  57 W3        30.58S
TRACY          FAIR      16   6  62 SW3       30.57S
SLAYTON        FAIR      15   6  68 SW5       30.56S WCI   7
$$
MNZ065>067-074>077-082>085-091>093-220000-
   South Central Minnesota

CITY           SKY/WX    TMP DP  RH WIND       PRES   REMARKS
MANKATO        FAIR      18   3  52 W5        30.63R WCI  11
NEW ULM        FAIR      16   3  57 S6        30.61S WCI   7
ST JAMES       FAIR      18   5  57 SW3       30.63R
FAIRMONT       FAIR      17   5  59 NW6       30.61R WCI   9
GLENCOE        FAIR      19   5  56 CALM      30.61S
FARIBAULT      FAIR      16   7  67 CALM      30.63R
OWATONNA       FAIR      16   9  73 SW5       30.61R WCI   9
WASECA         FAIR      18   9  68 SW6       30.63R WCI   9
ALBERT LEA     FAIR      19   9  63 CALM      30.59S
$$
MNZ078>079-086>088-094>096-220000-
   Southeast Minnesota

CITY           SKY/WX    TMP DP  RH WIND       PRES   REMARKS
ROCHESTER      FAIR      19   9  65 W6        30.60R WCI  11
RED WING       FAIR      18   1  49 CALM      30.64R
STANTON        FAIR      18   7  63 CALM      30.62R
DODGE CENTER   FAIR      18   7  62 W3        30.60R
WINONA         FAIR      23  10  58 CALM      30.63R
AUSTIN         FAIR      19  10  68 CALM      30.60R
PRESTON        FAIR      20  12  71 CALM      30.61R
$$
ABBREVIATIONS USED IN REMARKS
   TC - TEMPERATURES IN CELSIUS
  WCI - WIND CHILL INDEX
   HX - HEAT INDEX
  VSB - VISIBILITY
$$



USA.gov is the U.S. government's official web portal to all federal, state and local government web resources and services.